[[{"header":{"parameterUnit":"m.s-1","parameterCategory":1,"la1":30.2991,"la2":30.254,"lo1":-89.0895,"lo2":-89.0444,"dy":0.0017,"dx":0.0017,"nx":28,"ny":28,"refTime":"2024-08-30T09:00:00:Z","depth":0,"parameterNumber":2,"parameterNumberName":"U-component_of_WINDS"},"data":[0,0,0,0,0,0,0,0,0,0,0,0,0,0,0,0,0,0,0,0,0,0,0,0,0,0,0,0,0,0,0,0,0,0,0,0,0,0,0,0,0,0,0,0,0,0,0,0,0,0,0,0,0,0,0,0,0,0,-4.3007,-4.3008,0,-4.3042,-4.3042,-4.3042,-4.3021,-4.302,-4.3019,-4.3018,-4.3049,-4.3051,-4.3053,0,0,0,0,0,0,0,0,0,0,0,0,0,-4.292,-4.2922,-4.3007,-4.3008,-4.3008,-4.3042,-4.3042,-4.3042,-4.3021,-4.302,-4.3018,-4.3017,-4.3049,-4.3051,-4.3053,0,0,0,0,0,0,0,0,0,0,0,0,0,-4.2956,-4.2922,-4.3007,-4.3002,-4.3001,-4.3041,-4.3042,-4.3043,-4.3021,-4.302,-4.3018,-4.3017,-4.3048,-4.3051,-4.3053,-4.31,0,0,-4.3061,-4.3062,0,0,0,0,0,0,0,0,-4.2954,-4.2959,-4.3002,-4.3002,-4.3002,-4.3025,-4.3023,-4.3062,-4.3022,-4.3014,-4.3018,-4.3016,-4.3042,-4.3045,-4.3055,-4.3101,-4.3103,-4.3062,-4.3063,-4.3064,-4.3065,0,0,0,0,0,0,0,-4.2952,-4.2958,-4.3021,-4.3003,-4.3003,-4.2996,-4.3,-4.303,-4.3036,-4.3014,-4.3013,-4.3017,-4.3042,-4.3052,-4.3056,-4.3103,-4.3062,-4.3064,-4.3065,-4.3067,-4.3189,-4.319,0,0,0,0,0,0,-4.295,-4.2956,-4.302,-4.3022,-4.2974,-4.2999,-4.3003,-4.3019,-4.3035,-4.3037,-4.3018,-4.3016,-4.3049,-4.3052,-4.3057,-4.3112,-4.3064,-4.3067,-4.3068,-4.3187,-4.3189,-4.3191,0,0,0,0,0,0,-4.2948,-4.2956,-4.3018,-4.2989,-4.2996,-4.3002,-4.3021,-4.3021,-4.3031,-4.3039,-4.3039,-4.3028,-4.3048,-4.3053,-4.3089,-4.3113,-4.3068,-4.307,-4.3185,-4.3188,-4.319,-4.3223,0,0,0,0,0,0,-4.2946,-4.2956,-4.2974,-4.2989,-4.2998,-4.3052,-4.3022,-4.3023,-4.3036,-4.3034,-4.3048,-4.3049,-4.3047,-4.3085,-4.3092,-4.3116,-4.3072,-4.3183,-4.3186,-4.3189,-4.322,-4.3226,-4.3232,0,0,0,0,0,-4.2943,-4.2981,-4.2975,-4.2983,-4.3021,-4.3053,-4.3058,-4.3055,-4.3038,-4.3056,-4.3061,-4.3049,-4.3109,-4.3089,-4.3096,-4.3121,-4.3181,-4.3185,-4.3189,-4.3217,-4.3225,-4.3232,0,0,0,0,0,0,-4.2968,-4.2983,-4.2977,-4.3021,-4.3036,-4.3049,-4.3072,-4.3064,-4.3083,-4.3079,-4.3075,-4.3078,-4.3116,-4.3122,-4.31,-4.3167,-4.3142,-4.3148,-4.3162,-4.3169,-4.3175,-4.3173,-4.3075,0,0,0,0,0,-4.2979,-4.3005,-4.3016,-4.3054,-4.3062,-4.3066,-4.308,-4.3077,-4.3092,-4.3097,-4.3105,-4.3119,-4.3141,-4.3155,-4.3176,-4.3221,-4.3223,-4.3241,-4.3247,-4.3252,-4.3257,-4.328,-4.3288,-4.3203,-4.3203,-4.3203,0,0,-4.3001,-4.3013,-4.3029,-4.306,-4.3071,-4.3097,-4.3072,-4.31,-4.3118,-4.3101,-4.3137,-4.3142,-4.3157,-4.3198,-4.3217,-4.3204,-4.3281,-4.3257,-4.3261,-4.3263,-4.3285,-4.3293,-4.33,-4.3205,-4.3205,-4.3205,0,0,-4.3055,-4.3067,-4.31,-4.3112,-4.313,-4.3132,-4.314,-4.3154,-4.3158,-4.3194,-4.3181,-4.3203,-4.3241,-4.3252,-4.3263,-4.3321,-4.331,-4.3328,-4.3359,-4.3382,-4.3389,-4.3395,-4.3415,-4.3423,-4.3332,-4.3332,-4.3333,0,-4.308,-4.312,-4.3118,-4.3147,-4.3161,-4.3148,-4.3181,-4.3192,-4.3215,-4.3224,-4.321,-4.3258,-4.3267,-4.331,-4.3325,-4.3334,-4.3342,-4.3326,-4.3388,-4.3394,-4.34,-4.3419,-4.3427,-4.3334,-4.3334,-4.3334,-4.3334,0,-4.315,-4.3177,-4.3202,-4.3226,-4.3242,-4.3273,-4.3274,-4.3291,-4.3286,-4.329,-4.3326,-4.3336,-4.3359,-4.3369,-4.3364,-4.3411,-4.3403,-4.3389,-4.3364,-4.341,-4.3428,-4.3436,-4.3337,-4.3337,-4.3336,-4.3336,0,0,-4.322,-4.3243,-4.3252,-4.3263,-4.3281,-4.3302,-4.3332,-4.3355,-4.3369,-4.3385,-4.341,-4.3442,-4.343,-4.3442,-4.3438,-4.3459,-4.3504,-4.3442,-4.3442,-4.3453,-4.3556,-4.3566,-4.3575,-4.3497,-4.3498,-4.3499,-4.3554,0,-4.3275,-4.3329,-4.3328,-4.3378,-4.3403,-4.339,-4.3416,-4.343,-4.3434,-4.3454,-4.3458,-4.3481,-4.3463,-4.347,-4.349,-4.3494,-4.3524,-4.349,-4.3518,-4.352,-4.3515,-4.3585,-4.3596,-4.3648,-4.3562,-4.3563,-4.3564,0,-4.3347,-4.3367,-4.3419,-4.3434,-4.3444,-4.3468,-4.3489,-4.3509,-4.3524,-4.3525,-4.3539,-4.3532,-4.3561,-4.3536,-4.3576,-4.3553,-4.3564,-4.3568,-4.357,-4.3573,-4.3544,-4.3589,-4.3664,-4.3672,-4.3575,-4.3574,-4.3573,0,-4.3393,-4.3433,-4.3469,-4.3479,-4.3497,-4.3514,-4.3522,-4.3535,-4.3549,-4.3567,-4.3576,-4.3596,-4.3608,-4.3623,-4.3622,-4.3604,-4.3662,-4.3637,-4.3664,-4.3664,-4.3677,-4.3676,-4.3755,-4.3684,-4.3684,-4.3684,-4.3684,0,-4.3455,-4.3488,-4.3491,-4.3513,-4.3549,-4.3546,-4.3581,-4.3587,-4.3599,-4.3622,-4.3612,-4.3633,-4.363,-4.3651,-4.365,-4.3683,-4.3688,-4.3689,-4.3688,-4.369,-4.369,-4.3697,-4.3694,-4.3686,-4.3685,-4.3685,-4.3685,0,-4.3513,-4.3516,-4.3555,-4.3569,-4.3574,-4.3599,-4.3611,-4.3631,-4.3634,-4.3663,-4.3669,-4.3674,-4.3698,-4.3698,-4.3725,-4.3724,-4.3765,-4.376,-4.376,-4.3759,-4.3786,-4.3783,-4.3872,-4.3884,-4.3806,-4.3807,-4.3807,0,-4.3552,-4.3577,-4.3594,-4.3609,-4.3619,-4.3643,-4.3657,-4.3655,-4.3671,-4.3689,-4.3707,-4.3731,-4.3749,-4.3788,-4.3793,-4.3814,-4.3809,-4.3839,-4.3812,-4.3813,-4.381,-4.3808,-4.3811,-4.3844,-4.3845,-4.3846,-4.3846,0,-4.3622,-4.3622,-4.3644,-4.3667,-4.3684,-4.3702,-4.3718,-4.373,-4.373,-4.3747,-4.3772,-4.3787,-4.3815,-4.3838,-4.3858,-4.3865,-4.3856,-4.3855,-4.3862,-4.3864,-4.3863,-4.3864,-4.3775,-4.3853,-4.3852,-4.3852,-4.3851,-4.3851,-4.3672,-4.3693,-4.3709,-4.3733,-4.3745,-4.376,-4.378,-4.3786,-4.3807,-4.3831,-4.3828,-4.3856,-4.3869,-4.3895,-4.3904,-4.3925,-4.3914,-4.3925,-4.3927,-4.393,-4.3933,-4.386,-4.3928,-4.3928,-4.3928,-4.3928,-4.3928,0,-4.3741,-4.375,-4.3773,-4.3796,-4.3815,-4.3805,-4.3822,-4.3838,-4.3863,-4.3877,-4.3896,-4.3924,-4.3946,-4.3953,-4.3974,-4.399,-4.3986,-4.3995,-4.3994,-4.3996,-4.3941,-4.3933,-4.3998,-4.3998,-4.3998,-4.3998,-4.3998,-4.3998,-4.3779,-4.3815,-4.3817,-4.3858,-4.3867,-4.3895,-4.3905,-4.3919,-4.393,-4.3962,-4.3981,-4.3986,-4.3996,-4.4018,-4.4038,-4.4039,-4.4047,-4.4059,-4.4058,-4.4007,-4.4,-4.3993,-4.3985,-4.406,-4.4061,-4.4111,-4.4112,-4.4112]},{"header":{"parameterUnit":"m.s-1","parameterCategory":1,"la1":30.2991,"la2":30.254,"lo1":-89.0895,"lo2":-89.0444,"dy":0.0017,"dx":0.0017,"nx":28,"ny":28,"refTime":"2024-08-30T09:00:00:Z","depth":0,"parameterNumber":3,"parameterNumberName":"V-component_of_WINDS"},"data":[0,0,0,0,0,0,0,0,0,0,0,0,0,0,0,0,0,0,0,0,0,0,0,0,0,0,0,0,0,0,0,0,0,0,0,0,0,0,0,0,0,0,0,0,0,0,0,0,0,0,0,0,0,0,0,0,0,0,6.3534,6.3533,0,6.3432,6.343,6.3429,6.3333,6.3332,6.3331,6.3329,6.3216,6.3214,6.3212,0,0,0,0,0,0,0,0,0,0,0,0,0,6.3641,6.364,6.3534,6.3533,6.3532,6.3432,6.343,6.3429,6.3333,6.3332,6.333,6.3329,6.3217,6.3214,6.3212,0,0,0,0,0,0,0,0,0,0,0,0,0,6.3572,6.3639,6.3534,6.3472,6.3465,6.3432,6.343,6.3428,6.3333,6.3332,6.333,6.3328,6.3217,6.3215,6.3212,6.3229,0,0,6.3203,6.3202,0,0,0,0,0,0,0,0,6.3576,6.3568,6.3482,6.3476,6.3469,6.3393,6.3426,6.3361,6.3334,6.3383,6.3329,6.3327,6.3276,6.3268,6.3252,6.3224,6.3219,6.3203,6.3201,6.32,6.3199,0,0,0,0,0,0,0,6.3581,6.3572,6.3493,6.3481,6.3473,6.3447,6.3435,6.3414,6.334,6.3379,6.3372,6.3361,6.3272,6.3256,6.3249,6.3217,6.3203,6.32,6.3198,6.3197,6.3198,6.3199,0,0,0,0,0,0,6.3596,6.3577,6.3496,6.349,6.352,6.3447,6.3434,6.3419,6.334,6.3327,6.3363,6.3357,6.3261,6.3253,6.3245,6.3258,6.32,6.3197,6.3195,6.3196,6.3198,6.32,0,0,0,0,0,0,6.3599,6.359,6.3501,6.3532,6.3518,6.3447,6.3431,6.3418,6.3402,6.3329,6.3314,6.336,6.326,6.3249,6.3234,6.3253,6.3196,6.3193,6.3194,6.3197,6.3199,6.3287,0,0,0,0,0,0,6.3603,6.3592,6.3599,6.3533,6.3517,6.3494,6.3433,6.3417,6.3398,6.3389,6.3322,6.3309,6.3257,6.3239,6.3232,6.3248,6.3191,6.3192,6.3195,6.3198,6.3282,6.3292,6.3301,0,0,0,0,0,6.3607,6.3626,6.36,6.359,6.3525,6.3495,6.3486,6.3428,6.34,6.3405,6.3359,6.3311,6.3254,6.3239,6.3229,6.3245,6.319,6.3194,6.3198,6.3278,6.329,6.3301,0,0,0,0,0,0,6.3692,6.3616,6.3586,6.3584,6.3548,6.3479,6.3483,6.3444,6.3411,6.3404,6.3333,6.3318,6.3311,6.3277,6.3262,6.3258,6.3215,6.3218,6.3279,6.3291,6.33,6.3306,6.3189,0,0,0,0,0,6.3712,6.3696,6.363,6.3635,6.3618,6.3555,6.354,6.35,6.3457,6.344,6.3392,6.335,6.3323,6.3306,6.3276,6.3279,6.3261,6.3285,6.3295,6.3303,6.3304,6.3301,6.3311,6.3213,6.3213,6.3213,0,0,6.375,6.3706,6.37,6.3651,6.3617,6.3601,6.3542,6.3527,6.3513,6.3436,6.3419,6.3384,6.3333,6.3327,6.3322,6.3298,6.3329,6.3308,6.3315,6.3311,6.3306,6.3316,6.3324,6.3216,6.3215,6.3215,0,0,6.381,6.3777,6.3777,6.3746,6.3698,6.3656,6.3657,6.3595,6.3569,6.3553,6.3495,6.3478,6.3432,6.3398,6.3375,6.3428,6.3381,6.342,6.3468,6.3466,6.3474,6.348,6.3496,6.3502,6.3423,6.3423,6.3423,0,6.3862,6.3837,6.3781,6.377,6.3749,6.3685,6.3683,6.3655,6.3599,6.3585,6.3561,6.3504,6.3465,6.3449,6.3463,6.3448,6.3443,6.3424,6.3478,6.3484,6.3488,6.3502,6.3509,6.3428,6.3427,6.3427,6.3426,0,6.3902,6.3886,6.3892,6.3842,6.3823,6.3817,6.3759,6.3746,6.3709,6.367,6.3653,6.3606,6.3565,6.356,6.3522,6.3539,6.3526,6.3492,6.3446,6.3504,6.3515,6.352,6.3434,6.3433,6.3431,6.343,0,0,6.4006,6.3931,6.3933,6.391,6.3854,6.3839,6.3831,6.3795,6.3783,6.3749,6.3737,6.3703,6.3671,6.3645,6.3604,6.3603,6.3645,6.3568,6.3566,6.3581,6.3658,6.3681,6.3688,6.3617,6.3618,6.3619,6.3661,0,6.4054,6.4035,6.3987,6.3983,6.3966,6.3907,6.3899,6.3863,6.3828,6.3807,6.3767,6.3743,6.3704,6.3688,6.3686,6.3641,6.3659,6.3638,6.3602,6.3601,6.3612,6.3695,6.3718,6.376,6.3666,6.3666,6.3667,0,6.4104,6.4076,6.4071,6.4017,6.4008,6.4002,6.3966,6.3949,6.3907,6.3881,6.3855,6.3811,6.3796,6.376,6.3738,6.3725,6.3708,6.3685,6.3685,6.3675,6.3634,6.3682,6.3772,6.3777,6.3674,6.3674,6.3673,0,6.4177,6.4138,6.4129,6.4112,6.405,6.4047,6.4021,6.3978,6.396,6.3928,6.3915,6.3882,6.3863,6.3837,6.3785,6.3764,6.3768,6.3727,6.3743,6.3744,6.3741,6.3741,6.3825,6.374,6.3739,6.3739,6.3739,0,6.4231,6.4229,6.4161,6.4155,6.4151,6.4097,6.4094,6.4062,6.4025,6.4011,6.3959,6.3946,6.388,6.386,6.3819,6.3806,6.3798,6.3775,6.3763,6.3776,6.3779,6.376,6.3754,6.3741,6.3741,6.374,6.374,0,6.4308,6.4263,6.4249,6.4194,6.418,6.4179,6.4131,6.4122,6.4087,6.4069,6.4062,6.4004,6.3977,6.3925,6.3882,6.3855,6.385,6.3832,6.3864,6.3856,6.3873,6.3871,6.3944,6.3949,6.3865,6.3866,6.3867,0,6.4343,6.434,6.4286,6.4274,6.4251,6.4233,6.4215,6.4163,6.4146,6.4101,6.4098,6.4068,6.4041,6.4001,6.3953,6.3921,6.3899,6.3928,6.3893,6.3908,6.3895,6.3894,6.3892,6.3933,6.3934,6.3935,6.3936,0,6.4408,6.4387,6.4365,6.4336,6.4318,6.4292,6.4262,6.4256,6.4196,6.418,6.4154,6.4134,6.4093,6.4063,6.4025,6.3995,6.3955,6.3949,6.395,6.396,6.3978,6.3965,6.388,6.3945,6.3944,6.3944,6.3943,6.3943,6.4462,6.4457,6.4419,6.4396,6.437,6.4345,6.4335,6.43,6.4278,6.4242,6.4213,6.4189,6.4149,6.4094,6.4068,6.4047,6.4027,6.403,6.4029,6.403,6.4034,6.3987,6.404,6.404,6.404,6.4039,6.4039,0,6.4522,6.4496,6.4476,6.4439,6.4421,6.4391,6.4358,6.4344,6.4325,6.4292,6.4268,6.4238,6.421,6.4163,6.4131,6.4123,6.4104,6.4116,6.4113,6.4107,6.4055,6.4056,6.4132,6.4132,6.4132,6.4132,6.4132,6.4132,6.455,6.454,6.4515,6.4492,6.4465,6.4443,6.4427,6.4403,6.4377,6.4347,6.4325,6.4296,6.4257,6.4222,6.4194,6.4181,6.417,6.4187,6.4168,6.4119,6.411,6.4102,6.4102,6.4186,6.4186,6.422,6.422,6.422]}]]